Orbital Elements at Epoch 2459000.5 (2020-May-31.0) TDB
Reference: JPL 10 (heliocentric ecliptic J2000)
Element | Value | Uncertainty (1-sigma) | Units |
e | .07669458415416962 | 5.5486e-08 | |
a | 2.294539108776429 | 1.8667e-08 | au |
q | 2.118560386003341 | 1.2578e-07 | au |
i | 3.280654284485551 | 6.8854e-06 | deg |
node | 4.958014009210631 | 9.1561e-05 | deg |
peri | 118.8404854023061 | 0.00010162 | deg |
M | 140.0539355993659 | 4.4084e-05 | deg |
tp | 2458506.605215721348 (2019-Jan-23.10521572) | 0.00015415 | TDB |
period | 1269.526069220434 3.48 | 1.5492e-05 4.241e-08 | d yr |
n | .2835703879803442 | 3.4604e-09 | deg/d |
Q | 2.470517831549516 | 2.0098e-08 | au |
|
| | Orbit Determination Parameters
Additional Information
|